Location: Boiro
(42.6475°N, 8.8834°W)
Time: 03:11:10
(UTC+02:00)

UKube-1 - Pass Details

Date: 03 May 2024
Orbit: 583 x 591 km, 98.3° (Epoch: 23 May)

Event Time Altitude Azimuth Distance (km) Brightness Sun altitude
Rises 03:35:36 0° 14° (NNE) 2,829 ? -29.8°
Reaches altitude 10° 03:37:46 10° 15° (NNE) 1,922 ? -29.7°
Enters shadow 03:40:20 37° 19° (NNE) 923 ? -29.5°
